TimeCDT,TemperatureF,Dew PointF,Humidity,Sea Level PressureIn,VisibilityMPH,Wind Direction,Wind SpeedMPH,Gust SpeedMPH,PrecipitationIn,Events,Conditions,WindDirDegrees,DateUTC
12:51 AM,77.0,72.0,84,29.89,10.0,Calm,Calm,-,N/A,,Scattered Clouds,0,2013-08-08 05:51:00
1:51 AM,75.9,71.1,85,29.88,10.0,ENE,3.5,-,N/A,,Scattered Clouds,70,2013-08-08 06:51:00
2:51 AM,75.9,71.1,85,29.88,10.0,North,3.5,-,N/A,,Scattered Clouds,10,2013-08-08 07:51:00
3:51 AM,75.0,71.1,87,29.87,10.0,NNW,5.8,-,N/A,,Mostly Cloudy,330,2013-08-08 08:51:00
4:51 AM,73.9,71.1,91,29.88,10.0,North,3.5,-,N/A,,Mostly Cloudy,350,2013-08-08 09:51:00
5:51 AM,73.0,69.1,87,29.87,10.0,NNE,5.8,-,N/A,,Mostly Cloudy,20,2013-08-08 10:51:00
6:51 AM,73.0,69.1,87,29.90,9.0,NNW,4.6,-,N/A,,Mostly Cloudy,340,2013-08-08 11:51:00
7:20 AM,73.4,68.0,83,29.95,10.0,NNW,5.8,-,N/A,,Mostly Cloudy,340,2013-08-08 12:20:00
7:34 AM,73.4,69.8,88,29.95,10.0,NNW,4.6,-,N/A,,Mostly Cloudy,340,2013-08-08 12:34:00
7:49 AM,73.4,69.8,88,29.95,10.0,NW,3.5,-,N/A,,Mostly Cloudy,320,2013-08-08 12:49:00
7:51 AM,73.9,69.1,85,29.91,10.0,Calm,Calm,-,N/A,,Mostly Cloudy,0,2013-08-08 12:51:00
7:58 AM,75.2,69.8,83,29.95,10.0,North,3.5,-,N/A,,Mostly Cloudy,350,2013-08-08 12:58:00
8:51 AM,75.9,69.1,79,29.91,10.0,NNE,4.6,-,N/A,,Overcast,30,2013-08-08 13:51:00
9:51 AM,78.1,69.1,74,29.94,10.0,Calm,Calm,-,N/A,,Overcast,0,2013-08-08 14:51:00
10:51 AM,79.0,70.0,74,29.94,10.0,Calm,Calm,-,0.00,Rain,Light Rain,0,2013-08-08 15:51:00
11:18 AM,77.0,71.6,83,29.97,10.0,North,4.6,-,0.00,,Overcast,350,2013-08-08 16:18:00
11:47 AM,77.0,71.6,83,29.96,4.0,North,6.9,-,0.00,Rain,Light Rain,360,2013-08-08 16:47:00
11:51 AM,77.0,72.0,84,29.93,4.0,NNE,5.8,-,0.02,Rain,Rain,20,2013-08-08 16:51:00
12:02 PM,75.2,71.6,89,29.96,6.0,North,5.8,-,0.03,Rain-Thunderstorm,Light Thunderstorms and Rain,350,2013-08-08 17:02:00
12:16 PM,75.2,71.6,89,29.96,2.5,WNW,5.8,-,0.08,Rain-Thunderstorm,Heavy Thunderstorms and Rain,300,2013-08-08 17:16:00
12:34 PM,75.2,71.6,89,29.95,3.0,North,6.9,-,0.33,Rain-Thunderstorm,Light Thunderstorms and Rain,350,2013-08-08 17:34:00
12:45 PM,75.2,73.4,94,29.94,4.0,NNE,5.8,-,0.40,Rain,Light Rain,20,2013-08-08 17:45:00
12:51 PM,75.9,73.0,91,29.91,7.0,NE,8.1,-,0.40,Rain,Light Rain,40,2013-08-08 17:51:00
12:58 PM,75.2,73.4,94,29.93,7.0,NE,4.6,-,0.00,,Overcast,40,2013-08-08 17:58:00
1:14 PM,77.0,73.4,89,29.92,9.0,NNE,5.8,-,0.00,,Overcast,20,2013-08-08 18:14:00
1:51 PM,78.1,73.0,84,29.88,10.0,ENE,6.9,-,0.00,,Overcast,70,2013-08-08 18:51:00
2:21 PM,78.8,71.6,78,29.91,10.0,ENE,5.8,-,N/A,,Mostly Cloudy,60,2013-08-08 19:21:00
2:45 PM,80.6,71.6,74,29.92,9.0,Calm,Calm,-,N/A,,Overcast,0,2013-08-08 19:45:00
2:51 PM,80.1,71.1,74,29.90,9.0,Calm,Calm,-,N/A,,Overcast,0,2013-08-08 19:51:00
3:21 PM,80.6,73.4,79,29.92,8.0,NNW,8.1,-,N/A,,Mostly Cloudy,340,2013-08-08 20:21:00
3:51 PM,80.1,72.0,76,29.89,8.0,North,3.5,-,N/A,,Mostly Cloudy,360,2013-08-08 20:51:00
4:51 PM,79.0,72.0,79,29.90,7.0,NNW,9.2,-,N/A,,Overcast,330,2013-08-08 21:51:00
5:20 PM,78.8,71.6,78,29.93,7.0,NNW,8.1,-,N/A,,Mostly Cloudy,330,2013-08-08 22:20:00
5:51 PM,78.1,72.0,81,29.92,7.0,NW,9.2,-,N/A,,Mostly Cloudy,320,2013-08-08 22:51:00
6:51 PM,78.1,72.0,81,29.91,7.0,Variable,3.5,-,N/A,,Mostly Cloudy,0,2013-08-08 23:51:00
7:51 PM,78.1,71.1,79,29.91,8.0,NNW,5.8,-,N/A,,Mostly Cloudy,340,2013-08-09 00:51:00
8:51 PM,77.0,71.1,82,29.92,8.0,NW,3.5,-,N/A,,Mostly Cloudy,320,2013-08-09 01:51:00
9:51 PM,75.0,71.1,87,29.93,8.0,Calm,Calm,-,N/A,,Scattered Clouds,0,2013-08-09 02:51:00
10:51 PM,75.0,71.1,87,29.94,8.0,NW,3.5,-,N/A,,Scattered Clouds,310,2013-08-09 03:51:00
11:51 PM,73.9,70.0,87,29.95,6.0,West,3.5,-,N/A,,Scattered Clouds,270,2013-08-09 04:51:00